Home > Weather > Lubango > Past weeks

Flag for Angola Past Weather in Lubango, Angola — Yesterday and Last 2 Weeks

Now
68 °F

Partly sunny.


Feels Like: 68 °F
Forecast: 33 / 73 °F
Wind: 3 mph from North

Location: Luanda Airport

Current Time: Jul 25, 2016 at 7:31:00 AM

Latest Report: Jul 25, 2016 at 7:00 AM


Visibility: 5 mi

Pressure: 29.98 "Hg (24.40 "Hg at 1765m altitude)

Humidity: 83%

Dew Point: 63 °F

Location of LubangoLocation

Past Weather in Lubango — Graph

°F

Lubango Temperature Yesterday

Maximum temperature yesterday: 79 °F (at 2:00 PM)
Minimum temperature yesterday: 66 °F (at 12:00 AM)
Average temperature yesterday: 71 °F

High & Low Weather Summary for the Past Weeks

 TemperatureHumidityPressure
High81 °F (Jul 10, 11:00 AM)94% (Jul 10, 6:00 AM)30.07 "Hg (Jul 10, 6:00 AM)
Low64 °F (Jul 15, 5:00 AM)51% (Jul 24, 2:00 PM)29.80 "Hg (Jul 16, 4:00 PM)
Average71 °F79%29.95 "Hg
* Reported Jul 10 6:00 AM — Jul 25 6:00 AM, Lubango, Weather by CustomWeather, © 2016

Note: Actual official high and low records may vary slightly from our data, if they occured in-between our weather recording intervals... More about our weather records

Advertising

Lubango Weather History for the Previous 24 Hours

Scroll right to see more
 ConditionsComfort  
Time TempWeatherWind HumidityBarometerVisibility
6:00 AM
Mon, Jul 25
66 °FPassing clouds.5 mph88%29.95 "Hg5 mi
5:00 AM66 °FPassing clouds.2 mph88%29.95 "Hg5 mi
4:00 AM64 °FPartly cloudy.5 mph94%29.95 "Hg5 mi
3:00 AM64 °FClear.3 mph88%29.95 "Hg5 mi
2:00 AM64 °FClear.2 mph88%29.95 "Hg5 mi
1:00 AM64 °FClear.3 mph94%29.95 "Hg10 mi
12:00 AM66 °FClear.5 mph83%29.95 "Hg10 mi
11:00 PM
Sun, Jul 24
68 °FClear.5 mph83%29.95 "Hg10 mi
10:00 PM70 °FClear.6 mph78%29.98 "Hg10 mi
9:00 PM70 °FClear.6 mph78%29.95 "Hg10 mi
8:00 PM70 °FClear.5 mph73%29.95 "Hg10 mi
7:00 PM72 °FClear.5 mph73%29.92 "Hg10 mi
6:00 PM73 °FScattered clouds.7 mph61%29.92 "HgN/A
4:00 PM77 °FSunny.9 mph54%29.89 "Hg10 mi
2:00 PM79 °FPartly sunny.9 mph51%29.92 "HgN/A
12:00 PM75 °FPartly sunny.5 mph69%29.98 "HgN/A
11:00 AM73 °FPartly sunny.5 mph69%29.98 "Hg4 mi
10:00 AM72 °FPartly sunny.5 mph78%30.01 "Hg4 mi
9:00 AM70 °FPartly sunny.5 mph78%29.98 "Hg4 mi
8:00 AM70 °FFog.5 mph83%29.98 "Hg3 mi
7:00 AM68 °FFog.5 mph83%29.98 "Hg2 mi
Weather by CustomWeather, © 2016

See weather overviewHow to use our weather pages